Flag for Germany Weather past 2 weeks in Ostfildern, Baden-Württemberg, Germany

Now
55 °F

Light rain. Passing clouds.


Feels Like: 55 °F
Forecast: 46 / 71 °F
Wind: 2 mph from North

Location: Stuttgart-Echterdingen

Current Time: Jul 29, 2015 at 3:11:46 AM

Latest Report: Jul 29, 2015 at 2:20 AM


Visibility: N/A

Pressure: 29.92 "Hg

Humidity: 88%

Dew point: 52 °F

Location of OstfildernLocation

Historic Weather in Ostfildern — Graph

°F

Ostfildern temperature yesterday

Maximum temperature yesterday: 72 °F (at 2:20 PM)
Minimum temperature yesterday: 59 °F (at 11:20 PM)
Average temperature yesterday: 66 °F

Past Weeks' High & Low Weather Summary

 TemperatureHumidityPressure
High95 °F (Jul 22, 2:20 PM)94% (Jul 23, 1:50 AM)30.15 "Hg (Jul 23, 1:50 AM)
Low48 °F (Jul 26, 5:50 AM)26% (Jul 16, 5:20 PM)29.71 "Hg (Jul 24, 7:20 PM)
Average72 °F60%29.97 "Hg
* Reported Jul 14 1:20 AM — Jul 29 1:50 AM, Ostfildern, Weather by CustomWeather, © 2015

Note: Actual official high and low records may vary slightly from our data, if they occured in-between our weather recording intervals... More about our weather records

Advertising

Ostfildern weather history for previous 24 hours

 ConditionsComfort  
Time TempWeatherWind HumidityBarometerVisibility
1:50 AM
Wed, Jul 29
55 °FLight rain. Passing clouds.2 mph88%29.92 "HgN/A
1:20 AM55 °FRain. Passing clouds.5 mph88%29.95 "HgN/A
12:50 AM57 °FPassing clouds.3 mph77%29.92 "HgN/A
11:20 PM
Tue, Jul 28
59 °FLight rain. Passing clouds.12 mph72%29.92 "HgN/A
10:50 PM61 °FLight rain. Passing clouds.10 mph63%29.92 "HgN/A
10:20 PM63 °FPartly cloudy.7 mph56%29.89 "HgN/A
9:50 PM63 °FLight rain. Broken clouds.14 mph59%29.89 "HgN/A
9:20 PM64 °FSunny.9 mph52%29.86 "Hg10 mi
8:50 PM66 °FSunny.9 mph49%29.86 "Hg10 mi
8:20 PM66 °FPassing clouds.14 mph43%29.86 "HgN/A
7:50 PM68 °FSunny.13 mph40%29.86 "Hg10 mi
7:20 PM68 °FSunny.14 mph40%29.83 "Hg10 mi
6:50 PM70 °FSunny.16 mph40%29.83 "Hg10 mi
6:20 PM70 °FSunny.15 mph38%29.83 "Hg10 mi
5:50 PM70 °FPassing clouds.15 mph40%29.83 "HgN/A
5:20 PM70 °FPassing clouds.16 mph38%29.83 "HgN/A
4:50 PM70 °FPassing clouds.13 mph40%29.83 "HgN/A
4:20 PM70 °FPassing clouds.17 mph43%29.83 "HgN/A
3:50 PM70 °FPassing clouds.17 mph40%29.83 "HgN/A
3:20 PM72 °FPassing clouds.18 mph38%29.83 "HgN/A
2:50 PM72 °FPassing clouds.18 mph41%29.83 "HgN/A
2:20 PM72 °FPassing clouds.16 mph38%29.83 "HgN/A
1:50 PM70 °FPassing clouds.16 mph43%29.83 "HgN/A
1:20 PM70 °FScattered clouds.15 mph43%29.83 "HgN/A
12:50 PM70 °FBroken clouds.15 mph43%29.83 "HgN/A
12:20 PM68 °FBroken clouds.18 mph46%29.86 "HgN/A
11:50 AM66 °FBroken clouds.15 mph49%29.86 "HgN/A
11:20 AM66 °FBroken clouds.16 mph49%29.86 "HgN/A
10:50 AM64 °FBroken clouds.20 mph52%29.86 "HgN/A
10:20 AM66 °FBroken clouds.17 mph49%29.86 "HgN/A
9:50 AM66 °FPartly sunny.13 mph52%29.86 "HgN/A
9:20 AM64 °FPartly sunny.16 mph56%29.86 "HgN/A
8:50 AM64 °FPartly sunny.13 mph56%29.86 "HgN/A
8:20 AM64 °FBroken clouds.9 mph56%29.83 "HgN/A
7:50 AM64 °FBroken clouds.9 mph56%29.83 "HgN/A
7:20 AM63 °FBroken clouds.6 mph64%29.83 "HgN/A
6:50 AM63 °FPartly cloudy.7 mph68%29.83 "HgN/A
6:20 AM63 °FPassing clouds.3 mph68%29.80 "HgN/A
5:50 AM63 °FScattered showers. Partly cloudy.6 mph64%29.80 "HgN/A
5:20 AM63 °FPartly cloudy.7 mph64%29.80 "HgN/A
4:50 AM63 °FPassing clouds.3 mph64%29.80 "HgN/A
4:20 AM63 °FPassing clouds.6 mph64%29.80 "HgN/A
3:50 AM63 °FScattered showers. Passing clouds.8 mph64%29.80 "HgN/A
3:20 AM64 °FScattered showers. Passing clouds.9 mph56%29.80 "HgN/A
Weather by CustomWeather, © 2015

See weather overviewHow to use our weather pages